Location: Piotrkow Trybunalski
(51.4000°N, 19.6830°E)
Time: 15:23:47
(UTC+01:00)

Vanguard 2 - Pass Details

Date: 14 February 2023
Orbit: 553 x 2927 km, 32.9° (Epoch: 24 March)

Event Time Altitude Azimuth Distance (km) Brightness Sun altitude
Rises 00:40:02 0° 264° (W) 5,735 - -50.7°
Reaches altitude 10° 00:45:31 10° 247° (WSW) 5,118 - -50.5°
Maximum altitude 00:53:58 17° 213° (SSW) 4,935 - -50.0°
Drops below altitude 10° 01:03:23 10° 181° (S) 5,744 - -49.4°
Sets 01:10:19 0° 164° (SSE) 6,730 - -48.9°
